This demonstration page uses our WeatherBlox Daily Observations layout. Learn more.

Left ArrowRight Arrow

Hourly Observations for February 5, 2020

Temp ( °F °C ) Dew Point ( °F °C ) Humidity (%) Winds ( mph kmh ) Pressure ( in mb ) Visibility ( mi km ) Precip ( " mm )
12:53 am 00:53 Cloudy 30 -1.1 15 -9.4 54 54 SW 18 30 29.82 1010 10 16 0.00 0.00
1:53 am 01:53 Cloudy 29 -1.7 16 -8.9 58 58 SW 21 33 29.81 1010 10 16 0.00 0.00
2:53 am 02:53 Cloudy 29 -1.7 14 -10 54 54 SW 17 28 29.81 1010 10 16 0.00 0.00
3:53 am 03:53 Cloudy 28 -2.2 15 -9.4 58 58 SW 22 35 29.81 1010 10 16 0.00 0.00
4:53 am 04:53 Cloudy 29 -1.7 14 -10 54 54 SW 17 28 29.82 1010 10 16 0.00 0.00
5:53 am 05:53 Cloudy 28 -2.2 15 -9.4 58 58 SW 17 28 29.82 1010 10 16 0.00 0.00
6:53 am 06:53 Cloudy 29 -1.7 15 -9.4 56 56 SW 16 26 29.81 1010 10 16 0.00 0.00
7:53 am 07:53 Mostly Cloudy 28 -2.2 14 -10 56 56 SW 17 28 29.80 1009 10 16 0.00 0.00
8:53 am 08:53 Sunny 29 -1.7 15 -9.4 56 56 SW 16 26 29.80 1009 10 16 0.00 0.00
9:53 am 09:53 Sunny 33 0.6 15 -9.4 47 47 SW 23 37 29.79 1009 10 16 0.00 0.00
10:53 am 10:53 Mostly Cloudy 35 1.7 16 -8.9 46 46 SW 22 35 29.78 1009 10 16 0.00 0.00
11:53 am 11:53 Mostly Cloudy 38 3.3 18 -7.8 44 44 SW 18 30 29.76 1008 10 16 0.00 0.00
12:53 pm 12:53 Cloudy 41 5 17 -8.3 38 38 WSW 20 31 29.72 1007 10 16 0.00 0.00
1:53 pm 13:53 Cloudy 42 5.6 18 -7.8 38 38 WSW 17 28 29.70 1006 10 16 0.00 0.00
2:53 pm 14:53 Sunny 43 6.1 18 -7.8 37 37 WSW 16 26 29.67 1005 10 16 0.00 0.00
3:53 pm 15:53 Sunny 43 6.1 18 -7.8 37 37 W 15 24 29.65 1004 10 16 0.00 0.00
4:53 pm 16:53 Sunny 36 2.2 21 -6.1 55 55 SW 10 17 29.65 1004 10 16 0.00 0.00
5:53 pm 17:53 Clear 33 0.6 23 -5 66 66 SW 10 17 29.64 1004 10 16 0.00 0.00
6:53 pm 18:53 Clear 33 0.6 24 -4.4 70 70 WSW 8 13 29.62 1003 10 16 0.00 0.00
7:53 pm 19:53 Mostly Cloudy 32 0 25 -3.9 75 75 WSW 8 13 29.62 1003 10 16 0.00 0.00
8:53 pm 20:53 Cloudy 34 1.1 24 -4.4 67 67 SSW 9 15 29.60 1002 10 16 0.00 0.00
9:53 pm 21:53 Cloudy 34 1.1 24 -4.4 67 67 WSW 10 17 29.58 1002 10 16 0.00 0.00
10:53 pm 22:53 Cloudy 34 1.1 24 -4.4 67 67 WSW 7 11 29.58 1002 10 16 0.00 0.00
11:53 pm 23:53 Cloudy 32 0 25 -3.9 75 75 WSW 5 7 29.59 1002 10 16 0.00 0.00

Powered by AerisWeather